sat.trackr.live / text

‹ back to catalog

STARLINK-5624

NORAD 55416 · 2023-014AB

PAYLOAD ACTIVE UNKNOWN

§ Identity

Operator
Country
US
Launch date
2023-01-31
Launch site
AFWTR
Launch vehicle
Mass (kg)
RCS (m²)

Purposes: comms

External: N2YO · Heavens-Above · Gunter

§ Orbital elements

Epoch: 2026-05-24T17:34:35.060736Z

Period
96.11 min
Inclination
69.9995°
Eccentricity
0.0003311
Mean motion
14.98334644 rev/d
Perigee alt
569.7 km
Apogee alt
574.3 km
Semi-major
6,950.2 km
B*
4.4303e-5
RAAN
252.6806°
Arg perigee
270.5410°
Mean anomaly
89.5370°
Rev number
18,295

§ Raw data

STARLINK-56241 55416U 23014AB  26144.73235024  .00000436  00000+0  44303-4 0  99942 55416  69.9995 252.6806 0003311 270.5410  89.5370 14.98334644182959

JSON: /api/v1/satellites/55416 · /tle

For live sub-satellite position, see the globe view (requires WebGL).

§ Visibility from observer

Set your observer location to see the next 7 days of passes ≥ 10°. The values pass through the URL so the page stays shareable.

No JS? Fill the form by hand. The geolocation button needs JavaScript.